Location: Table Mountain
(47.2500°N, 120.5778°W)
Time: 22:26:17
(UTC-08:00)

N. Korean satellite - Pass Details

Date: 14 October 2017
Orbit: 461 x 513 km, 97.2° (Epoch: 13 December)

Event Time Altitude Azimuth Distance (km) Brightness Sun altitude
Rises 19:34:53 0° 189° (S) 2,538 10.3 -14.2°
Reaches altitude 10° 19:37:07 10° 200° (SSW) 1,653 9.5 -14.6°
Maximum altitude 19:40:18 30° 263° (W) 869 8.6 -15.1°
Drops below altitude 10° 19:43:28 10° 327° (NNW) 1,642 9.7 -15.6°
Sets 19:45:41 0° 339° (NNW) 2,517 10.6 -16.0°
